Regional Weather Roundup
Issued by NWS San Diego, CA

Current Version | Previous Version | Text Only | Print | Product List | Glossary On
Versions: 1 2 3 4 5 6 7 8 9 10 11 12 13 14 15 16 17 18 19 20 21 22 23 24 25 26 27 28 29 30 31 32 33 34 35 36 37 38 39 40 41 42 43 44 45 46 47 48 49 50
000
ASUS46 KSGX 241604
RWRSGX

SAN DIEGO HOURLY WEATHER ROUNDUP
NATIONAL WEATHER SERVICE SAN DIEGO CA
900 AM PDT WED MAY 24 2017

NOTE: "FAIR" INDICATES FEW OR NO CLOUDS BELOW 12,000 FEET WITH NO
SIGNIFICANT WEATHER AND/OR OBSTRUCTIONS TO VISIBILITY.

CAZ042-043-060-061-PZZ750-775-241700-

GREATER SAN DIEGO AREA

CITY           SKY/WX    TMP DP  RH WIND       PRES   REMARKS
SAN DIEGO AP   CLOUDY    64  56  75 W7        29.92R
NATIONAL CITY    N/A     63  59  87 NW5       29.90R
CHULA VISTA      N/A     63  59  87 W6        29.82R
IMPERIAL BEACH CLOUDY    61  56  83 W8        29.91R
BROWN FIELD    CLOUDY    61  58  90 VRB5      29.89S FOG
MIRAMAR MCAS   PTSUNNY   66  55  67 W6        29.90R
MONTGOMERY FLD PTSUNNY   63  54  72 VRB3      29.90S

$$

NORTH SAN DIEGO COUNTY

CITY           SKY/WX    TMP DP  RH WIND       PRES   REMARKS
CAMP PENDLETON CLOUDY    61  58  90 CALM      29.90R FOG
OCEANSIDE AP   CLOUDY    61  58  90 SW3       29.90R FOG
OCEANSIDE HBR    N/A     59  57  92 CALM      29.93R
VISTA            N/A     60  54  81 CALM      29.88R
CARLSBAD       CLOUDY   N/A N/A N/A VRB5      29.89R FOG
DEL MAR          N/A     60  58  92 CALM      29.92S
LA JOLLA SCRIP   N/A     60  58  92 W2        29.90S
FALLBROOK        N/A     59  59 100 CALM        N/A
ESCONDIDO        N/A     63  60  90 SE5       29.90R
SAN MARCOS       N/A     59  55  87 CALM      29.90R
POWAY            N/A     61  57  88 CALM      29.90R

$$

EAST SAN DIEGO COUNTY

CITY           SKY/WX    TMP DP  RH WIND       PRES   REMARKS
RAMONA         FAIR      68  58  70 W9        29.89S
SANTEE LAKES     N/A     64  59  85 CALM      29.87R
LA MESA          N/A     62  58  85 CALM      29.81S
JAMUL            N/A     61  59  94 CALM      29.86S
DESCANSO N       N/A     73  53  48 CALM      29.76F
MT. LAGUNA OBS   N/A     69   8   9 W13       29.67R
CAMPO            N/A     74  40  29 CALM      29.89F

$$

ORANGE COUNTY AND THE LOS ANGELES BASIN

CITY           SKY/WX    TMP DP  RH WIND       PRES   REMARKS
JOHN WAYNE AP  CLOUDY    62  55  77 SW3       29.90S
LAKE FOREST FR   N/A     58  55  88 CALM      29.77S
HUNTINGTON BCH   N/A     60  57  89 W1        29.92S
FULLERTON      CLOUDY    62  57  83 CALM      29.88F HAZE
LONG BEACH     CLOUDY    61  55  81 CALM      29.89F HAZE
L.A. AP        CLOUDY    59  56  89 SW7       29.90S FOG
L.A. DOWNTOWN  CLOUDY    62  57  83 CALM      29.89R HAZE

$$

THE INLAND EMPIRE

CITY           SKY/WX    TMP DP  RH WIND       PRES   REMARKS
CORONA         FAIR      63  56  78 W8        29.90R
CHINO          PTSUNNY   63  56  78 W10       29.91R HAZE
ONTARIO        FAIR      62  55  77 W6        29.89R HAZE
SAN BERNARDINO MOSUNNY   72  54  53 SW6       29.89R HAZE
RIVERSIDE AP   FAIR      64  57  78 VRB6      29.89R
MORENO VALLEY    N/A     74  57  55 CALM      28.01S
MARCH ARB      FAIR      70  53  55 NW10      29.88S
HORSETHIEF CYN   N/A     65  50  58 NE8       29.84S
PERRIS           N/A     73  51  47 SE1       29.89R
HEMET EAST       N/A     71  50  47 CALM      29.86R
FRENCH VALLEY  FAIR      68  54  60 SW3       29.89F
TEMECULA         N/A     63  59  87 NE1       29.93S

$$

SAN BERNARDINO AND RIVERSIDE COUNTY MOUNTAINS

CITY           SKY/WX    TMP DP  RH WIND       PRES   REMARKS
BIG BEAR AP    FAIR      68  18  14 W5        30.13F
ANGELUS OAKS     N/A     69  33  27 CALM      29.68F
PINE COVE        N/A     70  18  14 CALM      29.75S

$$

SOUTHERN DESERT INCLUDING THE COACHELLA VALLEY

CITY           SKY/WX    TMP DP  RH WIND       PRES   REMARKS
PALM SPRINGS   FAIR      91  41  17 CALM      29.72S
PALM DESERT      N/A     92  50  23 CALM      27.90F
THERMAL        FAIR      94  42  16 NW7       29.66S
BLYTHE         FAIR      92  31  11 SW6       29.70F
IMPERIAL AP    FAIR      92  39  15 NW7       29.68S
EL CENTRO NAS  FAIR      95  23   7 NW8       29.70S
MEXICALI       SUNNY     86  36  16 E6        29.71S

$$

UPPER DESERT

CITY           SKY/WX    TMP DP  RH WIND       PRES   REMARKS
VICTORVILLE AP FAIR      81  30  16 SE5       29.89S
HESPERIA         N/A     84  28  13 W7        29.84S
PALMDALE       FAIR      84  28  13 SW15      29.87S
LANCASTER      FAIR      84  34  16 SW16      29.85F
EDWARDS AFB    MOSUNNY   81  34  18 SW17      29.82F
DAGGETT        FAIR      85  35  16 W10       29.80F
29 PALMS N     FAIR      87  27  11 CALM      29.88F
NEEDLES        FAIR      93  26   9 CALM      29.72F

$$

REGIONAL REPORTS

CITY           SKY/WX    TMP DP  RH WIND       PRES   REMARKS
SANTA BARBARA  CLOUDY    55  53  93 E10       29.91R FOG
SANDBERG       FAIR      74  39  28 SW7       30.01S
LAS VEGAS NV   FAIR      90  25   9 NE5       29.76F
PHOENIX AZ     FAIR      89  33  13 SE6       29.77S
TIJUANA        CLOUDY    63  55  77 W7        29.92  FOG
ENSENADA NW      N/A     60  32  35 W6        29.88R

$$

OFFSHORE ISLANDS

CITY           SKY/WX    TMP DP  RH WIND       PRES   REMARKS
CATALINA ARPT  FOG       52  51  97 W9        29.91R VSB 1/2
SAN NICOLAS IS CLOUDY    58  46  64 NW17      29.90F

$$

MARINE AND OFFSHORE BUOY REPORTS

STATION/POSITION SKY/WX   TEMP    WIND        PRES    VSBY  SWELL
                          AIR SEA DIR/SP/G                  HT/PER/DIR
                          (F)     (DEG/KT/KT) (MB)    (MI)  (FT/S/D)
TANNER BANKS               57 59  310/ 14/ 17 1012.6          3/350/15
S CLEMENTE BASIN           56 62  280/ 12/ 16 1012.4          3/230/15
SAN NICOLAS IS.               59                N/A           3/230/14
SO. S. ROSA ISLA           54 56  300/ 14/ 17 1012.5          3/290/14
W. S. BARBARA CH           53 54  330/ 12/ 16 1012.4R         3/250/14
M. S. BARBARA CH                  250/ 10/ 12 1013.3R
S. MONICA BASIN            56 63  320/  8/ 10 1012.4R         3/220/15
S PEDRO CHANNEL               63                N/A           2/200/15
CMP PENDLETON NS              63                N/A           2/210/14
OCEANSIDE OFFSHR              63                N/A           2/190/14
TORREY PINES OTR              64                N/A           3/200/14
SAN DIEGO BAY                 69              1012.5F
POINT LOMA SOUTH              64                N/A           3/220/14

$$





USA.gov is the U.S. government's official web portal to all federal, state and local government web resources and services.